Time,TemperatureF,DewpointF,PressureIn,WindDirection,WindDirectionDegrees,WindSpeedMPH,WindSpeedGustMPH,Humidity,HourlyPrecipIn,Conditions,Clouds,dailyrainin,SoftwareType,DateUTC
2013-03-07 00:00:00,70.5,63.3,30.11,ENE,77,0.0,4.0,78,0.00,,---,0.00,VWS V14.00,2013-03-07 10:00:00,
2013-03-07 00:05:00,70.6,63.4,30.11,ENE,77,1.0,1.0,78,0.00,,---,0.00,VWS V14.00,2013-03-07 10:05:00,
2013-03-07 00:10:00,70.6,63.4,30.11,ENE,77,0.0,2.0,78,0.00,,---,0.00,VWS V14.00,2013-03-07 10:10:00,
2013-03-07 00:15:00,70.6,63.4,30.11,ENE,77,1.0,4.0,78,0.00,,---,0.00,VWS V14.00,2013-03-07 10:15:00,
2013-03-07 00:20:00,70.7,63.5,30.11,ENE,77,0.0,4.0,78,0.00,,---,0.00,VWS V14.00,2013-03-07 10:20:00,
2013-03-07 00:25:00,70.6,63.4,30.11,ENE,77,0.0,4.0,78,0.00,,---,0.00,VWS V14.00,2013-03-07 10:25:00,
2013-03-07 00:30:00,70.5,63.3,30.11,ENE,77,0.0,4.0,78,0.00,,---,0.00,VWS V14.00,2013-03-07 10:30:00,
2013-03-07 00:35:00,70.4,63.2,30.11,ENE,75,3.0,6.0,78,0.00,,---,0.00,VWS V14.00,2013-03-07 10:35:00,
2013-03-07 00:40:00,70.4,63.2,30.10,ENE,75,2.0,6.0,78,0.00,,---,0.00,VWS V14.00,2013-03-07 10:40:00,
2013-03-07 00:45:00,70.4,63.2,30.11,ENE,75,2.0,6.0,78,0.00,,---,0.00,VWS V14.00,2013-03-07 10:45:00,
2013-03-07 00:50:00,70.4,63.2,30.10,ENE,75,0.0,6.0,78,0.00,,---,0.00,VWS V14.00,2013-03-07 10:50:00,
2013-03-07 00:55:00,70.3,63.1,30.10,ENE,75,0.0,6.0,78,0.00,,---,0.00,VWS V14.00,2013-03-07 10:55:00,
2013-03-07 01:00:00,70.3,63.5,30.10,ENE,75,1.0,6.0,79,0.00,,---,0.00,VWS V14.00,2013-03-07 11:00:00,
2013-03-07 01:05:00,70.4,63.2,30.10,ENE,75,0.0,0.0,78,0.00,,---,0.00,VWS V14.00,2013-03-07 11:05:00,
2013-03-07 01:10:00,70.3,63.1,30.10,ENE,75,0.0,0.0,78,0.00,,---,0.00,VWS V14.00,2013-03-07 11:10:00,
2013-03-07 01:15:00,70.2,63.4,30.10,ENE,75,0.0,1.0,79,0.00,,---,0.00,VWS V14.00,2013-03-07 11:15:00,
2013-03-07 01:20:00,70.1,63.3,30.10,ENE,75,2.0,2.0,79,0.00,,---,0.00,VWS V14.00,2013-03-07 11:20:00,
2013-03-07 01:25:00,69.9,63.1,30.09,ENE,75,0.0,3.0,79,0.00,,---,0.00,VWS V14.00,2013-03-07 11:25:00,
2013-03-07 01:30:00,69.8,63.0,30.09,ENE,75,0.0,3.0,79,0.00,,---,0.00,VWS V14.00,2013-03-07 11:30:00,
2013-03-07 01:35:00,69.5,63.1,30.09,ENE,75,0.0,2.0,80,0.00,,---,0.00,VWS V14.00,2013-03-07 11:35:00,
2013-03-07 01:40:00,69.2,62.8,30.09,ENE,75,0.0,2.0,80,0.00,,---,0.00,VWS V14.00,2013-03-07 11:40:00,
2013-03-07 01:45:00,69.0,62.9,30.09,ENE,75,0.0,2.0,81,0.00,,---,0.00,VWS V14.00,2013-03-07 11:45:00,
2013-03-07 01:50:00,68.8,62.7,30.09,ENE,75,0.0,2.0,81,0.00,,---,0.00,VWS V14.00,2013-03-07 11:50:00,
2013-03-07 01:55:00,68.6,62.9,30.08,ENE,75,0.0,2.0,82,0.00,,---,0.00,VWS V14.00,2013-03-07 11:55:00,
2013-03-07 02:00:00,68.4,62.7,30.08,ENE,75,0.0,2.0,82,0.00,,---,0.00,VWS V14.00,2013-03-07 12:00:00,
2013-03-07 02:05:00,68.3,62.6,30.08,ENE,75,0.0,0.0,82,0.00,,---,0.00,VWS V14.00,2013-03-07 12:05:00,
2013-03-07 02:10:00,68.3,62.9,30.08,ENE,75,0.0,0.0,83,0.00,,---,0.00,VWS V14.00,2013-03-07 12:10:00,
2013-03-07 02:15:00,68.2,62.8,30.07,ENE,75,0.0,0.0,83,0.00,,---,0.00,VWS V14.00,2013-03-07 12:15:00,
2013-03-07 02:20:00,68.2,62.8,30.07,ENE,75,0.0,1.0,83,0.00,,---,0.00,VWS V14.00,2013-03-07 12:20:00,
2013-03-07 02:25:00,68.2,62.8,30.07,ENE,75,1.0,2.0,83,0.00,,---,0.00,VWS V14.00,2013-03-07 12:25:00,
2013-03-07 02:30:00,68.2,63.2,30.07,ENE,75,0.0,2.0,84,0.00,,---,0.00,VWS V14.00,2013-03-07 12:30:00,
2013-03-07 02:35:00,68.1,63.1,30.07,ENE,75,0.0,0.0,84,0.00,,---,0.00,VWS V14.00,2013-03-07 12:35:00,
2013-03-07 02:40:00,68.1,63.1,30.07,ENE,75,0.0,4.0,84,0.00,,---,0.00,VWS V14.00,2013-03-07 12:40:00,
2013-03-07 02:45:00,68.1,63.1,30.06,ENE,75,0.0,4.0,84,0.00,,---,0.00,VWS V14.00,2013-03-07 12:45:00,
2013-03-07 02:50:00,68.2,63.2,30.07,ENE,75,0.0,4.0,84,0.00,,---,0.00,VWS V14.00,2013-03-07 12:50:00,
2013-03-07 02:55:00,68.1,63.1,30.06,ENE,75,0.0,4.0,84,0.00,,---,0.00,VWS V14.00,2013-03-07 12:55:00,
2013-03-07 03:00:00,68.1,63.1,30.06,ENE,75,0.0,4.0,84,0.00,,---,0.00,VWS V14.00,2013-03-07 13:00:00,
2013-03-07 03:05:00,68.1,63.1,30.06,ENE,75,0.0,0.0,84,0.00,,---,0.00,VWS V14.00,2013-03-07 13:05:00,
2013-03-07 03:10:00,68.1,63.1,30.06,ENE,75,0.0,2.0,84,0.00,,---,0.00,VWS V14.00,2013-03-07 13:10:00,
2013-03-07 03:15:00,68.0,63.0,30.06,ENE,75,0.0,2.0,84,0.00,,---,0.00,VWS V14.00,2013-03-07 13:15:00,
2013-03-07 03:20:00,68.0,63.0,30.05,ENE,75,0.0,2.0,84,0.00,,---,0.00,VWS V14.00,2013-03-07 13:20:00,
2013-03-07 03:25:00,67.9,62.9,30.05,ENE,75,0.0,2.0,84,0.00,,---,0.00,VWS V14.00,2013-03-07 13:25:00,
2013-03-07 03:30:00,67.9,63.2,30.05,ENE,75,0.0,2.0,85,0.00,,---,0.00,VWS V14.00,2013-03-07 13:30:00,
2013-03-07 03:35:00,67.9,63.2,30.05,ENE,75,0.0,0.0,85,0.00,,---,0.00,VWS V14.00,2013-03-07 13:35:00,
2013-03-07 03:40:00,67.9,63.2,30.05,ENE,75,0.0,0.0,85,0.00,,---,0.00,VWS V14.00,2013-03-07 13:40:00,
2013-03-07 03:45:00,67.9,63.2,30.05,ENE,75,0.0,1.0,85,0.00,,---,0.00,VWS V14.00,2013-03-07 13:45:00,
2013-03-07 03:50:00,67.9,63.2,30.05,ENE,75,1.0,1.0,85,0.00,,---,0.00,VWS V14.00,2013-03-07 13:50:00,
2013-03-07 03:55:00,68.0,63.3,30.05,ENE,75,0.0,4.0,85,0.00,,---,0.00,VWS V14.00,2013-03-07 13:55:00,
2013-03-07 04:00:00,68.0,63.3,30.05,ENE,75,0.0,4.0,85,0.00,,---,0.00,VWS V14.00,2013-03-07 14:00:00,
2013-03-07 04:05:00,68.0,63.3,30.05,ENE,75,0.0,0.0,85,0.00,,---,0.00,VWS V14.00,2013-03-07 14:05:00,
2013-03-07 04:10:00,68.0,63.3,30.05,ENE,75,0.0,1.0,85,0.00,,---,0.00,VWS V14.00,2013-03-07 14:10:00,
2013-03-07 04:15:00,68.0,63.3,30.05,ENE,75,0.0,1.0,85,0.00,,---,0.00,VWS V14.00,2013-03-07 14:15:00,
2013-03-07 04:20:00,68.0,63.3,30.05,ENE,75,0.0,1.0,85,0.00,,---,0.00,VWS V14.00,2013-03-07 14:20:00,
2013-03-07 04:25:00,67.9,63.2,30.05,ENE,75,0.0,1.0,85,0.00,,---,0.00,VWS V14.00,2013-03-07 14:25:00,
2013-03-07 04:30:00,67.8,63.1,30.05,ENE,75,0.0,1.0,85,0.00,,---,0.00,VWS V14.00,2013-03-07 14:30:00,
2013-03-07 04:35:00,67.7,63.0,30.05,ENE,75,0.0,0.0,85,0.00,,---,0.00,VWS V14.00,2013-03-07 14:35:00,
2013-03-07 04:40:00,67.6,62.9,30.05,ENE,75,0.0,0.0,85,0.00,,---,0.00,VWS V14.00,2013-03-07 14:40:00,
2013-03-07 04:45:00,67.4,62.7,30.04,ENE,75,0.0,0.0,85,0.00,,---,0.00,VWS V14.00,2013-03-07 14:45:00,
2013-03-07 04:50:00,67.3,62.6,30.05,ENE,75,0.0,0.0,85,0.00,,---,0.00,VWS V14.00,2013-03-07 14:50:00,
2013-03-07 04:55:00,67.2,62.9,30.04,ENE,75,0.0,0.0,86,0.00,,---,0.00,VWS V14.00,2013-03-07 14:55:00,
2013-03-07 05:00:00,67.3,63.0,30.05,ENE,75,0.0,0.0,86,0.00,,---,0.00,VWS V14.00,2013-03-07 15:00:00,
2013-03-07 05:05:00,67.3,63.0,30.05,ENE,75,1.0,2.0,86,0.00,,---,0.00,VWS V14.00,2013-03-07 15:05:00,
2013-03-07 05:10:00,67.4,63.1,30.05,ENE,75,0.0,2.0,86,0.00,,---,0.00,VWS V14.00,2013-03-07 15:10:00,
2013-03-07 05:15:00,67.5,63.2,30.04,ENE,75,0.0,2.0,86,0.00,,---,0.00,VWS V14.00,2013-03-07 15:15:00,
2013-03-07 05:20:00,67.6,63.6,30.04,ENE,75,2.0,3.0,87,0.00,,---,0.00,VWS V14.00,2013-03-07 15:20:00,
2013-03-07 05:25:00,67.7,63.7,30.05,ENE,75,2.0,3.0,87,0.00,,---,0.00,VWS V14.00,2013-03-07 15:25:00,
2013-03-07 05:30:00,67.8,63.5,30.05,ENE,75,0.0,3.0,86,0.00,,---,0.00,VWS V14.00,2013-03-07 15:30:00,
2013-03-07 05:35:00,67.9,63.9,30.05,ENE,75,0.0,0.0,87,0.00,,---,0.00,VWS V14.00,2013-03-07 15:35:00,
2013-03-07 05:40:00,68.0,63.7,30.04,ENE,75,0.0,0.0,86,0.00,,---,0.00,VWS V14.00,2013-03-07 15:40:00,
2013-03-07 05:45:00,68.1,63.8,30.05,ENE,75,0.0,0.0,86,0.00,,---,0.00,VWS V14.00,2013-03-07 15:45:00,
2013-03-07 05:50:00,68.2,63.9,30.05,ENE,75,0.0,0.0,86,0.00,,---,0.00,VWS V14.00,2013-03-07 15:50:00,
2013-03-07 05:55:00,68.3,64.0,30.05,ENE,75,0.0,1.0,86,0.00,,---,0.00,VWS V14.00,2013-03-07 15:55:00,
2013-03-07 06:00:00,68.4,64.1,30.05,ENE,75,0.0,1.0,86,0.00,,---,0.00,VWS V14.00,2013-03-07 16:00:00,
2013-03-07 06:05:00,68.4,64.1,30.05,ENE,75,0.0,3.0,86,0.00,,---,0.00,VWS V14.00,2013-03-07 16:05:00,
2013-03-07 06:10:00,68.4,64.1,30.06,ENE,75,1.0,3.0,86,0.00,,---,0.00,VWS V14.00,2013-03-07 16:10:00,
2013-03-07 06:15:00,68.4,64.1,30.06,ENE,75,0.0,3.0,86,0.00,,---,0.00,VWS V14.00,2013-03-07 16:15:00,
2013-03-07 06:20:00,68.4,64.4,30.06,ENE,75,0.0,3.0,87,0.00,,---,0.00,VWS V14.00,2013-03-07 16:20:00,
2013-03-07 06:25:00,68.4,64.4,30.06,ENE,75,0.0,3.0,87,0.00,,---,0.00,VWS V14.00,2013-03-07 16:25:00,
2013-03-07 06:30:00,68.3,64.3,30.06,ENE,75,1.0,3.0,87,0.00,,---,0.00,VWS V14.00,2013-03-07 16:30:00,
2013-03-07 06:35:00,68.3,64.3,30.06,ENE,75,0.0,0.0,87,0.00,,---,0.00,VWS V14.00,2013-03-07 16:35:00,
2013-03-07 06:41:00,68.3,64.3,30.06,ENE,75,0.0,1.0,87,0.00,,---,0.00,VWS V14.00,2013-03-07 16:41:00,
2013-03-07 06:45:00,68.2,64.2,30.06,ENE,75,0.0,1.0,87,0.00,,---,0.00,VWS V14.00,2013-03-07 16:45:00,
2013-03-07 06:50:00,68.2,64.2,30.06,ENE,75,0.0,3.0,87,0.00,,---,0.00,VWS V14.00,2013-03-07 16:50:00,
2013-03-07 06:56:00,68.2,64.2,30.06,ENE,75,0.0,3.0,87,0.00,,---,0.00,VWS V14.00,2013-03-07 16:56:00,
2013-03-07 07:01:00,68.2,64.2,30.06,ENE,75,2.0,4.0,87,0.00,,---,0.00,VWS V14.00,2013-03-07 17:01:00,
2013-03-07 07:06:00,68.2,64.2,30.07,ENE,75,0.0,2.0,87,0.00,,---,0.00,VWS V14.00,2013-03-07 17:06:00,
2013-03-07 07:11:00,68.2,64.2,30.07,ENE,75,0.0,3.0,87,0.00,,---,0.00,VWS V14.00,2013-03-07 17:11:00,
2013-03-07 07:16:00,68.3,64.3,30.07,ENE,75,0.0,3.0,87,0.00,,---,0.00,VWS V14.00,2013-03-07 17:16:00,
2013-03-07 07:20:00,68.4,64.4,30.07,ENE,75,0.0,3.0,87,0.00,,---,0.00,VWS V14.00,2013-03-07 17:20:00,
2013-03-07 07:26:00,68.5,64.2,30.07,ENE,75,0.0,3.0,86,0.00,,---,0.00,VWS V14.00,2013-03-07 17:26:00,
2013-03-07 07:31:00,68.5,64.2,30.07,ENE,75,0.0,3.0,86,0.00,,---,0.00,VWS V14.00,2013-03-07 17:31:00,
2013-03-07 07:36:00,68.9,64.6,30.08,ENE,75,0.0,1.0,86,0.00,,---,0.00,VWS V14.00,2013-03-07 17:36:00,
2013-03-07 07:41:00,69.2,64.5,30.07,ENE,75,1.0,2.0,85,0.00,,---,0.00,VWS V14.00,2013-03-07 17:41:00,
2013-03-07 07:46:00,69.6,64.9,30.08,ENE,75,3.0,3.0,85,0.00,,---,0.00,VWS V14.00,2013-03-07 17:46:00,
2013-03-07 07:51:00,70.0,64.9,30.08,ENE,75,1.0,3.0,84,0.00,,---,0.00,VWS V14.00,2013-03-07 17:51:00,
2013-03-07 07:56:00,70.6,65.5,30.08,ENE,75,2.0,4.0,84,0.00,,---,0.00,VWS V14.00,2013-03-07 17:56:00,
2013-03-07 08:01:00,71.1,66.0,30.08,ENE,75,0.0,4.0,84,0.00,,---,0.00,VWS V14.00,2013-03-07 18:01:00,
2013-03-07 08:06:00,71.7,66.3,30.08,ENE,75,1.0,3.0,83,0.00,,---,0.00,VWS V14.00,2013-03-07 18:06:00,
2013-03-07 08:11:00,72.2,66.1,30.09,ENE,75,2.0,3.0,81,0.00,,---,0.00,VWS V14.00,2013-03-07 18:11:00,
2013-03-07 08:16:00,72.6,66.4,30.09,ENE,75,0.0,4.0,81,0.00,,---,0.00,VWS V14.00,2013-03-07 18:16:00,
2013-03-07 08:20:00,73.2,66.7,30.09,ENE,75,3.0,4.0,80,0.00,,---,0.00,VWS V14.00,2013-03-07 18:20:00,
2013-03-07 08:25:00,73.8,66.9,30.08,ENE,75,0.0,4.0,79,0.00,,---,0.00,VWS V14.00,2013-03-07 18:25:00,
2013-03-07 08:30:00,74.3,66.6,30.08,ESE,109,5.0,8.0,77,0.00,,---,0.00,VWS V14.00,2013-03-07 18:30:00,
2013-03-07 08:36:00,74.4,66.7,30.09,East,92,1.0,4.0,77,0.00,,---,0.00,VWS V14.00,2013-03-07 18:36:00,
2013-03-07 08:40:00,74.6,66.9,30.09,ESE,105,5.0,6.0,77,0.00,,---,0.00,VWS V14.00,2013-03-07 18:40:00,
2013-03-07 08:45:00,74.9,66.8,30.09,ESE,108,4.0,8.0,76,0.00,,---,0.00,VWS V14.00,2013-03-07 18:45:00,
2013-03-07 08:50:00,75.1,66.6,30.09,East,90,1.0,8.0,75,0.00,,---,0.00,VWS V14.00,2013-03-07 18:50:00,
2013-03-07 08:56:00,75.0,65.8,30.09,SE,140,8.0,11.0,73,0.00,,---,0.00,VWS V14.00,2013-03-07 18:56:00,
2013-03-07 09:01:00,74.9,66.1,30.09,ESE,115,1.0,11.0,74,0.00,,---,0.00,VWS V14.00,2013-03-07 19:01:00,
2013-03-07 09:06:00,74.8,65.6,30.09,SE,146,0.0,10.0,73,0.00,,---,0.00,VWS V14.00,2013-03-07 19:06:00,
2013-03-07 09:11:00,75.0,65.8,30.09,SSE,147,4.0,10.0,73,0.00,,---,0.00,VWS V14.00,2013-03-07 19:11:00,
2013-03-07 09:16:00,74.9,65.3,30.09,SSE,148,4.0,13.0,72,0.00,,---,0.00,VWS V14.00,2013-03-07 19:16:00,
2013-03-07 09:21:00,74.7,65.9,30.09,SE,140,8.0,13.0,74,0.00,,---,0.00,VWS V14.00,2013-03-07 19:21:00,
2013-03-07 09:26:00,74.6,65.8,30.09,SSE,150,5.0,13.0,74,0.00,,---,0.00,VWS V14.00,2013-03-07 19:26:00,
2013-03-07 09:31:00,74.6,65.4,30.09,SSE,150,4.0,13.0,73,0.00,,---,0.00,VWS V14.00,2013-03-07 19:31:00,
2013-03-07 09:36:00,74.8,66.3,30.09,SE,142,5.0,9.0,75,0.00,,---,0.00,VWS V14.00,2013-03-07 19:36:00,
2013-03-07 09:41:00,75.2,66.3,30.09,SE,128,4.0,10.0,74,0.00,,---,0.00,VWS V14.00,2013-03-07 19:41:00,
2013-03-07 09:46:00,75.3,66.1,30.09,SE,138,0.0,10.0,73,0.00,,---,0.00,VWS V14.00,2013-03-07 19:46:00,
2013-03-07 09:51:00,75.5,66.6,30.09,SE,140,0.0,10.0,74,0.00,,---,0.00,VWS V14.00,2013-03-07 19:51:00,
2013-03-07 09:56:00,75.5,66.2,30.09,SSE,154,2.0,13.0,73,0.00,,---,0.00,VWS V14.00,2013-03-07 19:56:00,
2013-03-07 10:01:00,75.6,65.9,30.08,SE,142,4.0,13.0,72,0.00,,---,0.00,VWS V14.00,2013-03-07 20:01:00,
2013-03-07 10:06:00,75.6,65.9,30.09,SE,134,7.0,11.0,72,0.00,,---,0.00,VWS V14.00,2013-03-07 20:06:00,
2013-03-07 10:11:00,75.8,65.7,30.09,SE,140,1.0,11.0,71,0.00,,---,0.00,VWS V14.00,2013-03-07 20:11:00,
2013-03-07 10:16:00,76.2,66.1,30.09,SSE,150,2.0,12.0,71,0.00,,---,0.00,VWS V14.00,2013-03-07 20:16:00,
2013-03-07 10:21:00,76.0,65.5,30.09,SE,141,2.0,12.0,70,0.00,,---,0.00,VWS V14.00,2013-03-07 20:21:00,
2013-03-07 10:26:00,76.1,66.0,30.09,SSE,149,6.0,12.0,71,0.00,,---,0.00,VWS V14.00,2013-03-07 20:26:00,
2013-03-07 10:31:00,76.0,65.5,30.09,SSE,163,6.0,12.0,70,0.00,,---,0.00,VWS V14.00,2013-03-07 20:31:00,
2013-03-07 10:36:00,76.0,65.9,30.08,SSE,149,7.0,10.0,71,0.00,,---,0.00,VWS V14.00,2013-03-07 20:36:00,
2013-03-07 10:41:00,76.2,66.1,30.08,ESE,123,2.0,10.0,71,0.00,,---,0.00,VWS V14.00,2013-03-07 20:41:00,
2013-03-07 10:46:00,76.7,66.6,30.08,ESE,115,6.0,10.0,71,0.00,,---,0.00,VWS V14.00,2013-03-07 20:46:00,
2013-03-07 10:51:00,76.9,66.4,30.08,SE,138,1.0,10.0,70,0.00,,---,0.00,VWS V14.00,2013-03-07 20:51:00,
2013-03-07 10:56:00,77.3,66.8,30.08,ESE,111,2.0,10.0,70,0.00,,---,0.00,VWS V14.00,2013-03-07 20:56:00,
2013-03-07 11:01:00,77.5,66.9,30.08,SE,125,5.0,10.0,70,0.00,,---,0.00,VWS V14.00,2013-03-07 21:01:00,
2013-03-07 11:06:00,77.5,66.9,30.08,SE,146,2.0,8.0,70,0.00,,---,0.00,VWS V14.00,2013-03-07 21:06:00,
2013-03-07 11:11:00,77.5,66.9,30.08,SE,143,7.0,10.0,70,0.00,,---,0.00,VWS V14.00,2013-03-07 21:11:00,
2013-03-07 11:16:00,77.5,66.5,30.08,SE,130,5.0,10.0,69,0.00,,---,0.00,VWS V14.00,2013-03-07 21:16:00,
2013-03-07 11:21:00,77.3,66.3,30.08,SE,138,5.0,10.0,69,0.00,,---,0.00,VWS V14.00,2013-03-07 21:21:00,
2013-03-07 11:26:00,77.6,66.6,30.08,SE,136,5.0,10.0,69,0.00,,---,0.00,VWS V14.00,2013-03-07 21:26:00,
2013-03-07 11:31:00,77.7,66.7,30.08,ESE,118,6.0,10.0,69,0.00,,---,0.00,VWS V14.00,2013-03-07 21:31:00,
2013-03-07 11:36:00,77.8,66.8,30.07,SE,146,0.0,8.0,69,0.00,,---,0.00,VWS V14.00,2013-03-07 21:36:00,
2013-03-07 11:41:00,77.9,66.9,30.07,SE,126,2.0,9.0,69,0.00,,---,0.00,VWS V14.00,2013-03-07 21:41:00,
2013-03-07 11:46:00,77.9,66.9,30.07,ESE,121,2.0,9.0,69,0.00,,---,0.00,VWS V14.00,2013-03-07 21:46:00,
2013-03-07 11:51:00,78.0,67.4,30.07,South,176,6.0,9.0,70,0.00,,---,0.00,VWS V14.00,2013-03-07 21:51:00,
2013-03-07 11:56:00,78.1,66.7,30.07,SE,136,4.0,9.0,68,0.00,,---,0.00,VWS V14.00,2013-03-07 21:56:00,
2013-03-07 12:01:00,77.9,66.5,30.06,SE,137,2.0,10.0,68,0.00,,---,0.00,VWS V14.00,2013-03-07 22:01:00,
2013-03-07 12:06:00,77.5,66.9,30.07,SE,140,4.0,11.0,70,0.00,,---,0.00,VWS V14.00,2013-03-07 22:06:00,
2013-03-07 12:11:00,77.7,66.7,30.06,SE,132,0.0,11.0,69,0.00,,---,0.00,VWS V14.00,2013-03-07 22:11:00,
2013-03-07 12:16:00,77.8,66.0,30.06,SSE,158,7.0,12.0,67,0.00,,---,0.00,VWS V14.00,2013-03-07 22:16:00,
2013-03-07 12:21:00,78.1,66.3,30.06,SSE,153,0.0,12.0,67,0.00,,---,0.00,VWS V14.00,2013-03-07 22:21:00,
2013-03-07 12:26:00,78.4,66.6,30.05,East,95,2.0,12.0,67,0.00,,---,0.00,VWS V14.00,2013-03-07 22:26:00,
2013-03-07 12:31:00,78.4,66.1,30.05,SE,126,1.0,12.0,66,0.00,,---,0.00,VWS V14.00,2013-03-07 22:31:00,
2013-03-07 12:37:00,78.6,66.7,30.05,SE,129,4.0,6.0,67,0.00,,---,0.00,VWS V14.00,2013-03-07 22:37:00,
2013-03-07 12:42:00,78.6,66.7,30.05,SE,142,4.0,11.0,67,0.00,,---,0.00,VWS V14.00,2013-03-07 22:42:00,
2013-03-07 12:47:00,78.8,66.9,30.05,SSE,153,5.0,11.0,67,0.00,,---,0.00,VWS V14.00,2013-03-07 22:47:00,
2013-03-07 12:52:00,78.9,67.4,30.04,ESE,121,1.0,11.0,68,0.00,,---,0.00,VWS V14.00,2013-03-07 22:52:00,
2013-03-07 12:57:00,78.9,67.0,30.04,SSE,152,4.0,11.0,67,0.00,,---,0.00,VWS V14.00,2013-03-07 22:57:00,
2013-03-07 13:02:00,78.4,66.6,30.04,SE,134,4.0,11.0,67,0.00,,---,0.00,VWS V14.00,2013-03-07 23:02:00,
2013-03-07 13:07:00,78.5,67.5,30.04,ENE,70,2.0,9.0,69,0.00,,---,0.00,VWS V14.00,2013-03-07 23:07:00,
2013-03-07 13:12:00,78.4,67.0,30.04,ESE,121,4.0,9.0,68,0.00,,---,0.00,VWS V14.00,2013-03-07 23:12:00,
2013-03-07 13:17:00,78.1,66.3,30.04,SE,131,2.0,12.0,67,0.00,,---,0.00,VWS V14.00,2013-03-07 23:17:00,
2013-03-07 13:22:00,77.6,65.8,30.03,NE,55,2.0,12.0,67,0.00,,---,0.00,VWS V14.00,2013-03-07 23:22:00,
2013-03-07 13:27:00,78.0,66.6,30.03,ESE,117,5.0,12.0,68,0.00,,---,0.00,VWS V14.00,2013-03-07 23:27:00,
2013-03-07 13:32:00,78.3,66.4,30.03,ESE,112,4.0,12.0,67,0.00,,---,0.00,VWS V14.00,2013-03-07 23:32:00,
2013-03-07 13:37:00,78.4,67.0,30.02,ESE,102,2.0,7.0,68,0.00,,---,0.00,VWS V14.00,2013-03-07 23:37:00,
2013-03-07 13:42:00,78.3,67.7,30.02,NE,56,5.0,8.0,70,0.00,,---,0.00,VWS V14.00,2013-03-07 23:42:00,
2013-03-07 13:47:00,78.0,67.0,30.02,ENE,59,2.0,8.0,69,0.00,,---,0.00,VWS V14.00,2013-03-07 23:47:00,
2013-03-07 13:52:00,78.3,67.3,30.02,SE,128,8.0,8.0,69,0.00,,---,0.00,VWS V14.00,2013-03-07 23:52:00,
2013-03-07 13:57:00,78.1,66.7,30.02,SE,146,10.0,13.0,68,0.00,,---,0.00,VWS V14.00,2013-03-07 23:57:00,
2013-03-07 14:02:00,77.6,67.5,30.01,SE,139,1.0,13.0,71,0.00,,---,0.00,VWS V14.00,2013-03-08 00:02:00,
2013-03-07 14:07:00,78.0,67.4,30.01,SE,133,4.0,9.0,70,0.00,,---,0.00,VWS V14.00,2013-03-08 00:07:00,
2013-03-07 14:12:00,77.6,65.8,30.01,SSE,161,6.0,14.0,67,0.00,,---,0.00,VWS V14.00,2013-03-08 00:12:00,
2013-03-07 14:17:00,77.3,66.8,30.01,SE,132,8.0,14.0,70,0.00,,---,0.00,VWS V14.00,2013-03-08 00:17:00,
2013-03-07 14:22:00,77.4,66.4,30.00,SE,146,5.0,14.0,69,0.00,,---,0.00,VWS V14.00,2013-03-08 00:22:00,
2013-03-07 14:27:00,77.4,66.0,30.01,NNE,27,11.0,14.0,68,0.00,,---,0.00,VWS V14.00,2013-03-08 00:27:00,
2013-03-07 14:32:00,77.3,66.8,30.00,East,96,2.0,14.0,70,0.00,,---,0.00,VWS V14.00,2013-03-08 00:32:00,
2013-03-07 14:37:00,77.5,66.5,30.00,SE,131,6.0,13.0,69,0.00,,---,0.00,VWS V14.00,2013-03-08 00:37:00,
2013-03-07 14:42:00,77.4,66.0,30.00,SE,126,4.0,13.0,68,0.00,,---,0.00,VWS V14.00,2013-03-08 00:42:00,
2013-03-07 14:47:00,77.2,66.2,30.00,SSE,152,8.0,13.0,69,0.00,,---,0.00,VWS V14.00,2013-03-08 00:47:00,
2013-03-07 14:52:00,77.3,66.3,30.00,ESE,105,6.0,13.0,69,0.00,,---,0.00,VWS V14.00,2013-03-08 00:52:00,
2013-03-07 14:57:00,77.4,66.0,29.99,SSE,147,5.0,13.0,68,0.00,,---,0.00,VWS V14.00,2013-03-08 00:57:00,
2013-03-07 15:02:00,77.7,66.7,29.99,ESE,109,1.0,13.0,69,0.00,,---,0.00,VWS V14.00,2013-03-08 01:02:00,
2013-03-07 15:07:00,78.0,67.0,29.99,ESE,112,2.0,11.0,69,0.00,,---,0.00,VWS V14.00,2013-03-08 01:07:00,
2013-03-07 15:12:00,77.6,67.1,29.99,East,84,2.0,11.0,70,0.00,,---,0.00,VWS V14.00,2013-03-08 01:12:00,
2013-03-07 15:17:00,77.4,67.3,29.99,SE,140,8.0,11.0,71,0.00,,---,0.00,VWS V14.00,2013-03-08 01:17:00,
2013-03-07 15:22:00,77.0,66.9,29.99,SE,134,4.0,12.0,71,0.00,,---,0.00,VWS V14.00,2013-03-08 01:22:00,
2013-03-07 15:27:00,76.4,66.3,29.99,East,86,4.0,15.0,71,0.00,,---,0.00,VWS V14.00,2013-03-08 01:27:00,
2013-03-07 15:32:00,76.0,66.7,29.99,ENE,62,6.0,15.0,73,0.00,,---,0.00,VWS V14.00,2013-03-08 01:32:00,
2013-03-07 15:37:00,75.8,66.1,29.99,SSE,147,6.0,11.0,72,0.00,,---,0.00,VWS V14.00,2013-03-08 01:37:00,
2013-03-07 15:42:00,75.5,66.2,29.99,ESE,115,6.0,11.0,73,0.00,,---,0.00,VWS V14.00,2013-03-08 01:42:00,
2013-03-07 15:47:00,75.1,65.9,29.99,ESE,113,5.0,12.0,73,0.00,,---,0.00,VWS V14.00,2013-03-08 01:47:00,
2013-03-07 15:52:00,74.9,65.7,29.99,East,83,3.0,12.0,73,0.00,,---,0.00,VWS V14.00,2013-03-08 01:52:00,
2013-03-07 15:57:00,74.6,65.4,29.99,ENE,65,3.0,12.0,73,0.00,,---,0.00,VWS V14.00,2013-03-08 01:57:00,
2013-03-07 16:02:00,74.3,65.5,29.99,ENE,66,1.0,12.0,74,0.00,,---,0.00,VWS V14.00,2013-03-08 02:02:00,
2013-03-07 16:07:00,74.3,65.9,29.99,ENE,68,2.0,4.0,75,0.00,,---,0.00,VWS V14.00,2013-03-08 02:07:00,
2013-03-07 16:12:00,74.3,65.9,29.99,ENE,71,2.0,4.0,75,0.00,,---,0.00,VWS V14.00,2013-03-08 02:12:00,
2013-03-07 16:17:00,74.3,65.5,29.99,East,91,4.0,6.0,74,0.00,,---,0.00,VWS V14.00,2013-03-08 02:17:00,
2013-03-07 16:22:00,74.2,65.4,29.99,East,98,2.0,6.0,74,0.00,,---,0.00,VWS V14.00,2013-03-08 02:22:00,
2013-03-07 16:27:00,74.0,65.2,29.99,NNE,30,0.0,7.0,74,0.00,,---,0.00,VWS V14.00,2013-03-08 02:27:00,
2013-03-07 16:32:00,73.8,65.0,29.99,NNE,32,4.0,7.0,74,0.00,,---,0.00,VWS V14.00,2013-03-08 02:32:00,
2013-03-07 16:37:00,73.6,65.2,30.00,NNE,32,0.0,4.0,75,0.00,,---,0.00,VWS V14.00,2013-03-08 02:37:00,
2013-03-07 16:42:00,73.6,65.2,30.00,NNE,32,0.0,4.0,75,0.00,,---,0.00,VWS V14.00,2013-03-08 02:42:00,
2013-03-07 16:47:00,73.5,65.1,30.00,NNE,32,0.0,4.0,75,0.00,,---,0.00,VWS V14.00,2013-03-08 02:47:00,
2013-03-07 16:52:00,73.5,65.1,30.00,NNE,32,3.0,4.0,75,0.00,,---,0.00,VWS V14.00,2013-03-08 02:52:00,
2013-03-07 16:57:00,73.4,65.0,30.00,NNE,32,0.0,4.0,75,0.00,,---,0.00,VWS V14.00,2013-03-08 02:57:00,
2013-03-07 17:02:00,73.3,64.9,30.00,NNE,32,0.0,5.0,75,0.00,,---,0.00,VWS V14.00,2013-03-08 03:02:00,
2013-03-07 17:07:00,73.1,64.7,30.00,NNE,32,0.0,6.0,75,0.00,,---,0.00,VWS V14.00,2013-03-08 03:07:00,
2013-03-07 17:12:00,73.1,64.7,30.00,NNE,32,0.0,6.0,75,0.00,,---,0.00,VWS V14.00,2013-03-08 03:12:00,
2013-03-07 17:17:00,73.0,65.0,30.00,NNE,32,0.0,6.0,76,0.00,,---,0.00,VWS V14.00,2013-03-08 03:17:00,
2013-03-07 17:22:00,73.1,65.1,30.00,NNE,32,0.0,6.0,76,0.00,,---,0.00,VWS V14.00,2013-03-08 03:22:00,
2013-03-07 17:27:00,73.2,65.2,30.00,NNE,32,1.0,6.0,76,0.00,,---,0.00,VWS V14.00,2013-03-08 03:27:00,
2013-03-07 17:32:00,73.3,65.7,30.01,NNE,32,1.0,6.0,77,0.00,,---,0.00,VWS V14.00,2013-03-08 03:32:00,
2013-03-07 17:37:00,73.3,65.7,30.01,NNE,32,0.0,3.0,77,0.00,,---,0.00,VWS V14.00,2013-03-08 03:37:00,
2013-03-07 17:42:00,73.2,65.6,30.01,NNE,32,0.0,3.0,77,0.00,,---,0.00,VWS V14.00,2013-03-08 03:42:00,
2013-03-07 17:47:00,73.1,65.5,30.01,NNE,32,0.0,3.0,77,0.00,,---,0.00,VWS V14.00,2013-03-08 03:47:00,
2013-03-07 17:52:00,73.1,65.5,30.01,NNE,32,2.0,3.0,77,0.00,,---,0.00,VWS V14.00,2013-03-08 03:52:00,
2013-03-07 17:57:00,73.0,65.4,30.01,NNE,32,0.0,3.0,77,0.00,,---,0.00,VWS V14.00,2013-03-08 03:57:00,
2013-03-07 18:02:00,72.9,65.7,30.01,NNE,32,0.0,3.0,78,0.00,,---,0.00,VWS V14.00,2013-03-08 04:02:00,
2013-03-07 18:07:00,72.8,65.6,30.01,NNE,32,0.0,3.0,78,0.00,,---,0.00,VWS V14.00,2013-03-08 04:07:00,
2013-03-07 18:12:00,72.7,65.4,30.01,NNE,32,0.0,3.0,78,0.00,,---,0.00,VWS V14.00,2013-03-08 04:12:00,
2013-03-07 18:17:00,72.7,65.4,30.02,NNE,32,1.0,3.0,78,0.00,,---,0.00,VWS V14.00,2013-03-08 04:17:00,
2013-03-07 18:22:00,72.6,65.3,30.02,NNE,32,2.0,3.0,78,0.00,,---,0.00,VWS V14.00,2013-03-08 04:22:00,
2013-03-07 18:27:00,72.6,65.7,30.02,NNE,32,0.0,3.0,79,0.00,,---,0.00,VWS V14.00,2013-03-08 04:27:00,
2013-03-07 18:32:00,72.5,65.6,30.02,NNE,32,0.0,3.0,79,0.00,,---,0.00,VWS V14.00,2013-03-08 04:32:00,
2013-03-07 18:37:00,72.5,65.6,30.02,NNE,32,0.0,0.0,79,0.00,,---,0.00,VWS V14.00,2013-03-08 04:37:00,
2013-03-07 18:42:00,72.5,65.6,30.02,NNE,32,0.0,0.0,79,0.00,,---,0.00,VWS V14.00,2013-03-08 04:42:00,
2013-03-07 18:47:00,72.4,65.9,30.02,NNE,32,0.0,1.0,80,0.00,,---,0.00,VWS V14.00,2013-03-08 04:47:00,
2013-03-07 18:52:00,72.3,65.8,30.02,NNE,32,0.0,3.0,80,0.00,,---,0.00,VWS V14.00,2013-03-08 04:52:00,
2013-03-07 18:57:00,72.2,65.7,30.02,NNE,32,0.0,3.0,80,0.00,,---,0.00,VWS V14.00,2013-03-08 04:57:00,
2013-03-07 19:00:00,72.1,65.6,30.02,NNE,32,1.0,3.0,80,0.00,,---,0.00,VWS V14.00,2013-03-08 05:00:00,
2013-03-07 19:02:00,72.0,65.5,30.02,NNE,32,0.0,3.0,80,0.00,,---,0.00,VWS V14.00,2013-03-08 05:02:00,
2013-03-07 19:07:00,71.9,65.4,30.02,NNE,32,0.0,0.0,80,0.00,,---,0.00,VWS V14.00,2013-03-08 05:07:00,
2013-03-07 19:12:00,71.8,65.3,30.03,NNE,32,0.0,0.0,80,0.00,,---,0.00,VWS V14.00,2013-03-08 05:12:00,
2013-03-07 19:17:00,71.7,65.6,30.02,NNE,32,0.0,0.0,81,0.00,,---,0.00,VWS V14.00,2013-03-08 05:17:00,
2013-03-07 19:22:00,71.5,65.4,30.03,NNE,32,0.0,0.0,81,0.00,,---,0.00,VWS V14.00,2013-03-08 05:22:00,
2013-03-07 19:27:00,71.4,65.3,30.03,NNE,32,0.0,0.0,81,0.00,,---,0.00,VWS V14.00,2013-03-08 05:27:00,
2013-03-07 19:32:00,71.2,65.1,30.03,NNE,32,0.0,0.0,81,0.00,,---,0.00,VWS V14.00,2013-03-08 05:32:00,
2013-03-07 19:37:00,71.1,65.0,30.03,NNE,32,0.0,0.0,81,0.00,,---,0.00,VWS V14.00,2013-03-08 05:37:00,
2013-03-07 19:42:00,71.0,65.2,30.03,NNE,32,0.0,3.0,82,0.00,,---,0.00,VWS V14.00,2013-03-08 05:42:00,
2013-03-07 19:47:00,71.1,65.7,30.04,North,5,0.0,5.0,83,0.00,,---,0.00,VWS V14.00,2013-03-08 05:47:00,
2013-03-07 19:52:00,71.1,65.7,30.04,North,360,0.0,5.0,83,0.00,,---,0.00,VWS V14.00,2013-03-08 05:52:00,
2013-03-07 19:57:00,71.2,66.1,30.04,North,360,0.0,5.0,84,0.00,,---,0.00,VWS V14.00,2013-03-08 05:57:00,
2013-03-07 20:02:00,71.1,66.0,30.04,North,360,0.0,5.0,84,0.00,,---,0.00,VWS V14.00,2013-03-08 06:02:00,
2013-03-07 20:07:00,71.0,65.9,30.04,North,360,1.0,4.0,84,0.00,,---,0.00,VWS V14.00,2013-03-08 06:07:00,
2013-03-07 20:12:00,71.0,65.9,30.04,North,360,2.0,4.0,84,0.00,,---,0.00,VWS V14.00,2013-03-08 06:12:00,
2013-03-07 20:17:00,70.8,66.1,30.05,North,360,0.0,4.0,85,0.00,,---,0.00,VWS V14.00,2013-03-08 06:17:00,
2013-03-07 20:22:00,70.6,65.9,30.05,North,360,0.0,4.0,85,0.00,,---,0.00,VWS V14.00,2013-03-08 06:22:00,
2013-03-07 20:27:00,70.4,65.7,30.05,North,360,0.0,4.0,85,0.00,,---,0.00,VWS V14.00,2013-03-08 06:27:00,
2013-03-07 20:32:00,70.2,65.5,30.05,North,360,0.0,4.0,85,0.00,,---,0.00,VWS V14.00,2013-03-08 06:32:00,
2013-03-07 20:37:00,70.1,65.4,30.05,North,360,0.0,1.0,85,0.00,,---,0.00,VWS V14.00,2013-03-08 06:37:00,
2013-03-07 20:42:00,70.0,65.3,30.05,North,360,0.0,2.0,85,0.00,,---,0.00,VWS V14.00,2013-03-08 06:42:00,
2013-03-07 20:47:00,69.9,65.2,30.05,North,360,1.0,2.0,85,0.00,,---,0.00,VWS V14.00,2013-03-08 06:47:00,
2013-03-07 20:52:00,69.9,65.2,30.05,North,360,0.0,2.0,85,0.00,,---,0.00,VWS V14.00,2013-03-08 06:52:00,
2013-03-07 20:57:00,69.8,65.1,30.05,North,360,0.0,2.0,85,0.00,,---,0.00,VWS V14.00,2013-03-08 06:57:00,
2013-03-07 21:02:00,69.7,65.0,30.05,North,360,0.0,2.0,85,0.00,,---,0.00,VWS V14.00,2013-03-08 07:02:00,
2013-03-07 21:07:00,69.6,64.9,30.05,North,360,0.0,0.0,85,0.00,,---,0.00,VWS V14.00,2013-03-08 07:07:00,
2013-03-07 21:12:00,69.6,65.2,30.05,North,360,0.0,0.0,86,0.00,,---,0.00,VWS V14.00,2013-03-08 07:12:00,
2013-03-07 21:17:00,69.4,65.0,30.05,North,360,0.0,0.0,86,0.00,,---,0.00,VWS V14.00,2013-03-08 07:17:00,
2013-03-07 21:22:00,69.4,65.0,30.05,North,360,0.0,0.0,86,0.00,,---,0.00,VWS V14.00,2013-03-08 07:22:00,
2013-03-07 21:27:00,69.4,65.0,30.05,North,360,0.0,0.0,86,0.00,,---,0.00,VWS V14.00,2013-03-08 07:27:00,
2013-03-07 21:32:00,69.2,64.8,30.05,North,360,0.0,0.0,86,0.00,,---,0.00,VWS V14.00,2013-03-08 07:32:00,
2013-03-07 21:37:00,69.0,64.6,30.05,North,360,0.0,0.0,86,0.00,,---,0.00,VWS V14.00,2013-03-08 07:37:00,
2013-03-07 21:42:00,68.9,64.6,30.05,North,360,0.0,0.0,86,0.00,,---,0.00,VWS V14.00,2013-03-08 07:42:00,
2013-03-07 21:47:00,68.7,64.7,30.05,North,360,0.0,0.0,87,0.00,,---,0.00,VWS V14.00,2013-03-08 07:47:00,
2013-03-07 21:52:00,68.5,64.5,30.05,North,360,0.0,0.0,87,0.00,,---,0.00,VWS V14.00,2013-03-08 07:52:00,
2013-03-07 21:57:00,68.5,64.5,30.05,North,360,0.0,0.0,87,0.00,,---,0.00,VWS V14.00,2013-03-08 07:57:00,
2013-03-07 22:02:00,68.4,64.4,30.05,North,360,0.0,0.0,87,0.00,,---,0.00,VWS V14.00,2013-03-08 08:02:00,
2013-03-07 22:07:00,68.3,64.6,30.05,North,360,0.0,0.0,88,0.00,,---,0.00,VWS V14.00,2013-03-08 08:07:00,
2013-03-07 22:12:00,68.2,64.5,30.05,North,360,0.0,0.0,88,0.00,,---,0.00,VWS V14.00,2013-03-08 08:12:00,
2013-03-07 22:17:00,68.2,64.5,30.05,North,360,0.0,0.0,88,0.00,,---,0.00,VWS V14.00,2013-03-08 08:17:00,
2013-03-07 22:22:00,68.1,64.4,30.05,North,360,0.0,0.0,88,0.00,,---,0.00,VWS V14.00,2013-03-08 08:22:00,
2013-03-07 22:27:00,68.0,64.3,30.05,North,360,0.0,0.0,88,0.00,,---,0.00,VWS V14.00,2013-03-08 08:27:00,
2013-03-07 22:32:00,67.9,64.2,30.05,North,360,0.0,0.0,88,0.00,,---,0.00,VWS V14.00,2013-03-08 08:32:00,
2013-03-07 22:37:00,67.7,64.0,30.05,North,360,0.0,0.0,88,0.00,,---,0.00,VWS V14.00,2013-03-08 08:37:00,
2013-03-07 22:42:00,67.5,63.8,30.05,North,360,0.0,0.0,88,0.00,,---,0.00,VWS V14.00,2013-03-08 08:42:00,
2013-03-07 22:47:00,67.4,63.7,30.05,North,360,0.0,0.0,88,0.00,,---,0.00,VWS V14.00,2013-03-08 08:47:00,
2013-03-07 22:52:00,67.3,63.6,30.05,North,360,0.0,0.0,88,0.00,,---,0.00,VWS V14.00,2013-03-08 08:52:00,
2013-03-07 22:57:00,67.2,63.5,30.05,North,360,0.0,0.0,88,0.00,,---,0.00,VWS V14.00,2013-03-08 08:57:00,
2013-03-07 23:02:00,67.1,63.8,30.05,North,360,0.0,0.0,89,0.00,,---,0.00,VWS V14.00,2013-03-08 09:02:00,
2013-03-07 23:07:00,67.1,63.8,30.05,North,360,0.0,0.0,89,0.00,,---,0.00,VWS V14.00,2013-03-08 09:07:00,
2013-03-07 23:12:00,67.1,63.8,30.04,North,360,0.0,0.0,89,0.00,,---,0.00,VWS V14.00,2013-03-08 09:12:00,
2013-03-07 23:17:00,67.0,63.7,30.04,North,360,0.0,0.0,89,0.00,,---,0.00,VWS V14.00,2013-03-08 09:17:00,
2013-03-07 23:22:00,67.0,63.7,30.04,North,360,0.0,0.0,89,0.00,,---,0.00,VWS V14.00,2013-03-08 09:22:00,
2013-03-07 23:27:00,66.9,63.6,30.04,North,360,0.0,0.0,89,0.00,,---,0.00,VWS V14.00,2013-03-08 09:27:00,
2013-03-07 23:32:00,66.8,63.5,30.04,North,360,0.0,0.0,89,0.00,,---,0.00,VWS V14.00,2013-03-08 09:32:00,
2013-03-07 23:37:00,66.7,63.4,30.04,North,360,0.0,0.0,89,0.00,,---,0.00,VWS V14.00,2013-03-08 09:37:00,
2013-03-07 23:42:00,66.6,63.3,30.03,North,360,0.0,0.0,89,0.00,,---,0.00,VWS V14.00,2013-03-08 09:42:00,
2013-03-07 23:47:00,66.5,63.2,30.03,North,360,0.0,0.0,89,0.00,,---,0.00,VWS V14.00,2013-03-08 09:47:00,
2013-03-07 23:52:00,66.4,63.1,30.03,North,360,0.0,0.0,89,0.00,,---,0.00,VWS V14.00,2013-03-08 09:52:00,
2013-03-07 23:57:00,66.3,63.3,30.03,North,360,0.0,0.0,90,0.00,,---,0.00,VWS V14.00,2013-03-08 09:57:00,